Location: ??
(35.4952°N, 139.3644°E)
Time: 00:19:18
(UTC+00:00)

Daily predictions for brighter satellites

Satellite Brightness Start Highest point End
(mag) Time Altitude Azimuth Time Altitude Azimuth Time Altitude Azimuth
Cosmos 2221 4.0 10:00:39 10° SSW 10:04:44 42° W 10:08:52 10° N
Cosmos 1606 2.8 10:01:26 10° S 10:05:11 82° W 10:08:59 10° N
Cosmos 1805 Rocket 4.2 10:02:28 10° NNE 10:06:30 36° E 10:10:33 10° SSE
SAR-Lupe-4 3.6 10:07:01 10° N 10:10:36 84° WNW 10:14:10 10° SSW
Cosmos 1862 4.4 10:08:03 10° NNW 10:11:56 49° W 10:15:50 10° SSW
Cosmos 1745 Rocket 4.4 10:07:20 10° N 10:13:12 44° E 10:19:00 10° SSE
NOSS 3-3 (A) 3.7 10:08:52 10° SSW 10:14:22 77° ESE 10:20:34 10° NE
Helios 1A Rocket 2.9 10:10:18 10° SSE 10:14:24 76° ENE 10:18:33 10° N
NOSS 3-3 (C) 3.8 10:08:58 10° SSW 10:14:29 76° ESE 10:20:41 10° NE
SL-08 ROCKET BODY 4.3 10:09:54 10° N 10:15:45 72° E 10:21:34 10° SSE
Chunghua 1 4.5 10:12:52 10° W 10:16:38 83° S 10:20:21 10° E
CZ-4 R/B 3.8 10:14:04 10° SSW 10:17:23 24° W 10:20:40 10° NW
Geosat 4.4 10:14:27 10° SSE 10:19:25 63° WSW 10:24:24 10° NNW
Cosmos 1743 Rocket 3.8 10:17:26 10° N 10:21:48 74° W 10:26:09 10° S
Cosmos 1933 3.3 10:23:07 10° S 10:27:06 64° E 10:31:05 10° NNE
S3M 4.0 10:22:31 10° S 10:28:52 79° E 10:35:13 10° N
Cosmos 1500 Rocket 4.3 10:27:20 10° NNW 10:31:36 54° W 10:35:48 10° S
Cosmos 1782 3.4 10:28:11 10° SSE 10:31:49 35° E 10:35:29 10° NNE
Cosmos 1812 4.5 10:32:34 14° ESE 10:33:36 15° E 10:35:51 10° NE
Cosmos 1777 Rocket 4.3 10:31:00 10° S 10:35:56 45° ESE 10:40:53 10° NNE
Resurs 1-3 4.1 10:34:15 13° SE 10:37:47 41° ENE 10:41:55 10° N
OAO 3 Rocket 3.6 10:35:30 10° SW 10:39:48 38° SSE 10:43:25 14° E
Cosmos 2315 Rocket 4.3 10:34:17 10° SSE 10:40:22 49° E 10:46:28 10° NNE
Cosmos 1666 Rocket 4.1 10:37:28 10° N 10:41:34 39° E 10:44:27 17° SE
Ariane Rocket 3.2 10:37:46 12° SSE 10:42:20 55° ENE 10:47:15 10° N
Intercosmos 24 3.8 10:38:54 10° S 10:42:43 78° W 10:46:16 10° N
SJ 16-02 2.5 10:40:46 16° SE 10:43:10 24° E 10:46:44 10° NE
SJ-6B 2.8 10:39:33 10° S 10:43:25 85° WSW 10:47:24 10° NNW
Sich 1 3.0 10:44:10 10° N 10:48:33 87° E 10:52:54 10° S
Cosmos 2082 Rocket 4.2 10:47:03 10° NNE 10:49:41 13° NE 10:52:19 10° E
Meteor 1-26 Rocket 4.1 10:46:09 10° S 10:51:49 76° E 10:57:21 10° NNE
USA 186 3.3 10:50:33 10° SSW 10:52:39 24° W 10:54:41 10° NW
Cosmos 1151 Rocket 2.9 10:51:05 10° S 10:55:25 74° E 10:59:48 10° N
Intercosmos 25 Rocket 4.2 10:50:57 10° NNW 10:55:26 50° W 10:58:41 10° SSW
DELTA 2 R/B (1) 3.9 10:53:26 10° WNW 10:58:52 56° SSW 11:02:10 23° SE
COSMOS 2406 4.1 10:59:34 10° N 11:04:44 34° ENE 11:07:20 23° ESE
Cosmos 1242 Rocket 4.3 11:02:04 10° SW 11:05:19 33° WNW 11:08:34 10° NNW
USA 267 3.9 10:59:54 14° SSE 11:05:23 50° SW 11:11:43 10° NW
X-37B 0.8 11:03:54 10° NW 11:07:04 62° NNE 11:07:58 40° E
IGS 5A 3.9 11:05:52 30° ESE 11:07:21 42° ENE 11:11:17 10° N
Cosmos 2278 Rocket 2.1 11:03:29 10° SSW 11:09:07 81° ESE 11:14:48 10° NNE
Cosmos 1500 3.7 11:06:49 10° N 11:10:19 37° E 11:10:54 35° ESE
GPS 2-04 Rocket1 2.7 11:07:52 10° W 11:12:02 86° N 11:13:58 30° E
Meteor 2-6 Rocket 4.3 11:11:42 24° SSE 11:14:44 49° E 11:20:02 10° NNE
OBJECT-B 3.1 11:14:23 10° SSW 11:16:59 22° W 11:19:36 10° NW
Meteor 1-14 Rocket 4.4 11:11:18 10° N 11:17:01 58° E 11:19:46 30° SSE
ATLAS 5 CENTAUR R/B 2.9 11:18:51 10° NW 11:24:47 58° WSW 11:29:07 23° S
Cosmos 2228 Rocket 4.2 11:28:38 27° ENE 11:28:38 27° ENE 11:31:49 10° NNE
SPOT 1/Viking Rocket 4.0 11:26:37 35° ESE 11:28:09 45° ENE 11:33:05 10° N
Resurs 01 Rocket 1.5 11:27:00 37° SSE 11:28:47 90° WSW 11:33:14 10° NNW
Milstar 3 4.1 11:13:43 10° WSW 11:30:54 59° S 11:36:57 25° ESE
CZ-2C R/B 3.6 11:27:37 10° NNE 11:32:09 82° ESE 11:34:25 30° S
ISS -3.7 11:29:13 10° SW 11:32:33 79° NW 11:33:58 32° NE
Cosmos 1515 Rocket 3.5 11:35:46 35° S 11:37:36 85° W 11:42:01 10° N
Tianhe-1 1.8 11:38:07 10° WSW 11:40:34 49° W 11:40:34 49° W
Cosmos 1271 Rocket 2.7 11:42:19 66° E 11:42:19 66° E 11:46:11 10° NNE
USA 307 4.2 11:38:55 10° NNW 11:42:42 30° NE 11:43:30 28° ENE
Delta 2 Rocket 3.6 11:37:43 10° W 11:42:51 88° N 11:44:04 50° E
SPOT 3 Rocket 3.6 11:41:32 36° S 11:43:39 75° WSW 11:48:48 10° NNW
Cosmos 773 Rocket 4.4 11:40:40 10° NNW 11:45:52 60° WSW 11:47:58 34° SSW
CRYOSAT 2 4.5 11:44:32 37° S 11:46:27 73° W 11:51:21 10° N
CZ-4C R/B 3.0 11:39:12 10° NNW 11:46:53 85° ENE 11:50:45 37° SE
Cosmos 1633 Rocket 4.2 11:44:22 10° NNW 11:48:28 39° W 11:50:36 24° SW
Cosmos 1833 Rocket 2.6 11:43:01 10° NNW 11:48:42 83° ENE 11:50:13 51° SSE
Spot 2 Rocket 3.6 11:49:04 49° E 11:49:42 53° ENE 11:54:36 10° N
ERS-1 Rocket 3.8 11:49:52 34° ENE 11:50:04 34° ENE 11:54:34 10° N
Cosmos 1538 Rocket 3.9 11:46:02 10° NNW 11:51:23 76° ENE 11:52:24 58° SE
